Location: Napa Soda Springs
(38.3907°N, 122.2794°W)
Time: 08:05:50
(UTC+00:00)

BREEZE-M DEB (TANK) - Pass Details

Date: 29 October 2020
Orbit: 313 x 13935 km, 49.6° (Epoch: 02 December)

Event Time Altitude Azimuth Distance (km) Brightness Sun altitude
Exits shadow 12:26:26 47° 309° (NW) 1,353 4.4 -25.3°
Maximum altitude 12:28:24 87° 37° (NE) 1,324 4.6 -24.9°
Drops below altitude 10° 12:47:17 10° 128° (SE) 8,074 9.4 -21.2°
Sets 12:59:05 0° 130° (SE) 11,590 10.4 -18.9°
